Погода в Звёздном

Россия / Пермский край     57°44′06″N   56°18′58″E
темп.,
°C
ветер,
м/с
пор.,
м/с
влажн.,
%
обл.,
%
осадки,
мм/ч
давл.,
гПа
погр.,
м
12 апреля, пн
пн1223:00+2зсз12100100 1.3 103345
02:00+1зсз12100100 0.0 103353
05:00+1сз2399100 0.0 1035140
08:00+2з12100100 0.0 1037113
11:00+5сз2491100 0.0 1038248
14:00+9ссз24715 0.0 1038884
17:00+10с34551 0.0 10391003
20:00+5ссв11800 0.0 104010
13 апреля, вт
вт1323:00+2в11855 0.0 104210
02:00+1ююв11865 0.0 104210
05:000юв11875 0.0 104210
08:00+3ююв25858 0.0 1041121
11:00+9ююв23575 0.0 1040439
14:00+12ю344328 0.0 1038748
17:00+13ююз2446100 0.0 1036856
20:00+9ююз2272100 0.0 103413
14 апреля, ср
ср1423:00+7ююз388898 0.0 1034123
02:00+7юз389199 0.0 1033147
05:00+6юз259499 0.0 103295
08:00+8юз279380 0.0 1032195
11:00+13зюз4674100 0.0 1031530
14:00+16зюз465864 0.0 10301130
17:00+17зюз46518 0.0 10281328
20:00+13юз227067 0.0 102827
15 апреля, чт
чт1523:00+10юз228099 0.0 102730
02:00+9юз348768 0.0 102764
05:00+8ююз368956 0.0 102688
08:00+9юз3107481 0.0 1025274
11:00+14юз58575 0.0 1023696
14:00+16зюз57435 0.0 10211296
17:00+17зюз574410 0.0 10191488
20:00+13юз376069 0.0 1018151
16 апреля, пт
пт1623:00+12юз3864100 0.0 1018202
02:00+11зюз3776100 0.1 1017165
05:00+6с4789100 0.1 1018272
08:00+4с468997 0.0 1018391
11:00+4с5894100 0.1 1019549
14:00+2с5996100 1.3 1020547
17:00+5ссв475614 2.3 10201060
20:00+3с4105895 0.0 1021478